Fort Campbell, TN

5:32 AM CDT on August 30, 2016 (GMT -0500)
Outlaw

Weather History for KCKV - January, 2014

Change the Weather History Date:

Tuesday, January 14, 2014

  Actual Average Record
Temperature  
Mean Temperature 44 °F 36 °F  
Max Temperature 57 °F 45 °F 72 °F (1952)
Min Temperature 30 °F 26 °F 3 °F (1972)
Degree Days  
Heating Degree Days 21 29  
Month to date heating degree days 406 406  
Since 1 July heating degree days 2033 1971  
Cooling Degree Days 0 0  
Month to date cooling degree days 0 0  
Year to date cooling degree days 0  
Moisture  
Dew Point 34 °F    
Average Humidity 69    
Maximum Humidity 100    
Minimum Humidity 38    
Precipitation  
Precipitation 0.02 in 0.11 in 2.39 in (1989)
Month to date precipitation 1.84 1.49  
Year to date precipitation 1.49  
Sea Level Pressure  
Sea Level Pressure 29.93 in    
Wind  
Wind Speed 8 mph (WSW)    
Max Wind Speed 29 mph    
Max Gust Speed 35 mph    
Visibility 7 miles    
Events Fog , Rain    
T = Trace of Precipitation, MM = Missing Value Source: NWS Daily Summary

Daily Weather History Graph

Daily Weather History Graph

Search for Another Location

Airport or City:

Trip Planner

Search our weather history database for the weather conditions in past years. The results will help you decide how hot, cold, wet, or windy it might be!

Date:

Astronomy

Jan. 14, 2014 Rise Set
Actual Time 7:01 AM CST 4:56 PM CST
Civil Twilight 6:33 AM CST 5:24 PM CST
Nautical Twilight 6:01 AM CST 5:56 PM CST
Astronomical Twilight 5:30 AM CST 6:27 PM CST
Moon 4:00 PM CST (1/14) 5:36 AM CST (1/14)
Length of Visible Light 10h 51m
Length of Day
9h 55m
Waxing Gibbous, 98% of the Moon is Illuminated
Jan 14
Waxing Gibbous
Jan 15
Full
Jan 23
Last Quarter
Jan 30
New
Feb 6
First Quarter

Hourly Weather History & Observations

Time (CST) Temp. Windchill Dew Point Humidity Pressure Visibility Wind Dir Wind Speed Gust Speed Precip Events Conditions
12:18 AM 44.6 °F 39.7 °F 42.8 °F 93% 29.86 in 2.0 mi WNW 9.2 mph - N/A   Mostly Cloudy
12:25 AM 44.6 °F 40.7 °F 42.8 °F 93% 29.86 in 8.0 mi WNW 6.9 mph - N/A   Mostly Cloudy
12:52 AM 42.1 °F 38.4 °F 41.0 °F 96% 29.86 in 7.0 mi WNW 5.8 mph - N/A   Scattered Clouds
1:52 AM 39.9 °F 35.1 °F 39.0 °F 97% 29.88 in 10.0 mi WNW 6.9 mph - N/A   Clear
2:52 AM 37.9 °F 33.5 °F 36.0 °F 93% 29.89 in 10.0 mi WNW 5.8 mph - N/A   Clear
3:52 AM 37.9 °F 33.5 °F 34.0 °F 86% 29.90 in 10.0 mi WNW 5.8 mph - N/A   Clear
4:52 AM 33.1 °F - 33.1 °F 100% 29.92 in 6.0 mi Calm Calm - N/A   Clear
5:03 AM 33.8 °F 30.8 °F 32.0 °F 93% 29.91 in 1.8 mi SSW 3.5 mph - N/A   Clear
5:09 AM 32.0 °F 28.7 °F 30.2 °F 93% 29.91 in 0.5 mi SSW 3.5 mph - N/A Fog Fog
5:29 AM 33.8 °F 29.6 °F 30.2 °F 87% 29.91 in 1.2 mi SSW 4.6 mph - N/A   Partly Cloudy
5:48 AM 33.8 °F - 32.0 °F 93% 29.91 in 0.5 mi Calm Calm - N/A Fog Fog
5:52 AM 30.9 °F - 30.0 °F 96% 29.92 in 0.5 mi Calm Calm - N/A Fog Light Freezing Fog
6:52 AM 30.9 °F - 30.0 °F 96% 29.94 in 0.2 mi Calm Calm - N/A Fog Light Freezing Fog
7:18 AM 30.2 °F 24.3 °F 30.2 °F 100% 29.94 in 2.5 mi SW 5.8 mph - N/A   Clear
7:25 AM 30.2 °F 25.4 °F 30.2 °F 100% 29.94 in 4.0 mi SW 4.6 mph - N/A   Clear
7:52 AM 32.0 °F 28.7 °F 32.0 °F 100% 29.94 in 7.0 mi South 3.5 mph - N/A   Clear
8:52 AM 39.0 °F 36.8 °F 37.0 °F 93% 29.95 in 10.0 mi South 3.5 mph - N/A   Clear
9:52 AM 45.0 °F 39.7 °F 37.9 °F 76% 29.95 in 10.0 mi South 10.4 mph - N/A   Clear
10:52 AM 48.9 °F - 36.0 °F 61% 29.93 in 10.0 mi SW 10.4 mph - N/A   Clear
11:52 AM 52.0 °F - 36.0 °F 54% 29.88 in 10.0 mi SSW 15.0 mph - N/A   Clear
12:52 PM 54.0 °F - 32.0 °F 43% 29.87 in 10.0 mi SW 18.4 mph 24.2 mph N/A   Clear
1:52 PM 55.9 °F - 32.0 °F 40% 29.85 in 10.0 mi SSW 12.7 mph - N/A   Clear
2:52 PM 55.9 °F - 30.9 °F 39% 29.86 in 10.0 mi SW 15.0 mph 24.2 mph N/A   Scattered Clouds
3:52 PM 55.0 °F - 30.0 °F 38% 29.88 in 10.0 mi West 11.5 mph 23.0 mph N/A   Mostly Cloudy
4:52 PM 53.1 °F - 32.0 °F 45% 29.91 in 10.0 mi West 11.5 mph - N/A   Overcast
5:52 PM 44.1 °F 36.2 °F 37.0 °F 76% 29.98 in 10.0 mi NNW 18.4 mph 32.2 mph 0.00 in Rain Light Rain
6:52 PM 41.0 °F 36.4 °F 37.9 °F 89% 30.01 in 10.0 mi NW 6.9 mph - 0.02 in   Overcast
7:52 PM 41.0 °F 39.0 °F 37.0 °F 86% 30.02 in 10.0 mi West 3.5 mph - N/A   Partly Cloudy
8:52 PM 39.0 °F 36.8 °F 37.0 °F 93% 30.04 in 10.0 mi WSW 3.5 mph - N/A   Clear
9:52 PM 39.0 °F 33.4 °F 35.1 °F 86% 30.03 in 10.0 mi WNW 8.1 mph - N/A   Clear
10:52 PM 37.0 °F 31.6 °F 32.0 °F 82% 30.04 in 10.0 mi NNW 6.9 mph - N/A   Partly Cloudy
11:52 PM 36.0 °F 27.5 °F 26.1 °F 67% 30.06 in 10.0 mi NNW 12.7 mph - N/A   Clear